Weather History for KFPR - April, 2013

Change the Weather History Date:

Friday, April 5, 2013

  Actual Average Record
Temperature  
Mean Temperature 72 °F -  
Max Temperature 78 °F 80 °F 91 °F (1946)
Min Temperature 64 °F 59 °F 33 °F (1987)
Cooling Degree Days 7    
Growing Degree Days 22 (Base 50)    
Moisture  
Dew Point 63 °F    
Average Humidity 77    
Maximum Humidity 90    
Minimum Humidity 61    
Precipitation  
Precipitation 0.12 in - - ()
Sea Level Pressure  
Sea Level Pressure 29.87 in    
Wind  
Wind Speed 10 mph (WSW)    
Max Wind Speed 16 mph    
Max Gust Speed 30 mph    
Visibility 10 miles    
Events Rain    
Averages and records for this station are not official NWS values.
T = Trace of Precipitation, MM = Missing Value Source: NWS Daily Summary

Daily Weather History Graph

Daily Weather History Graph

Search for Another Location

Airport or City:

Trip Planner

Search our weather history database for the weather conditions in past years. The results will help you decide how hot, cold, wet, or windy it might be!

Date:

Astronomy

Apr. 05, 2013 Rise Set
Actual Time 7:07 AM EDT 7:41 PM EDT
Civil Twilight 6:43 AM EDT 8:04 PM EDT
Nautical Twilight 6:16 AM EDT 8:32 PM EDT
Astronomical Twilight 5:48 AM EDT 9:00 PM EDT
Moon 3:49 AM EDT 3:25 PM EDT
Length of Visible Light 13h 21m
Length of Day
12h 33m
Waning Crescent, 24% of the Moon is Illuminated
Apr 5
Waning Crescent
Apr 10
New
Apr 18
First Quarter
Apr 25
Full
May 2
Last Quarter

Hourly Weather History & Observations

Time (EDT) Temp. Dew Point Humidity Pressure Visibility Wind Dir Wind Speed Gust Speed Precip Events Conditions
12:53 AM 70.0 °F 66.9 °F 90% 29.96 in 9.0 mi SSW 9.2 mph - 0.00 in Rain Light Rain
1:53 AM 70.0 °F 66.9 °F 90% 29.94 in 10.0 mi SW 12.7 mph - 0.05 in Rain Light Rain
2:53 AM 69.1 °F 64.0 °F 84% 29.89 in 10.0 mi West 12.7 mph 21.9 mph 0.00 in Rain Light Rain
3:53 AM 69.1 °F 60.1 °F 73% 29.83 in 10.0 mi SSW 3.5 mph - 0.00 in   Mostly Cloudy
4:41 AM 69.8 °F 60.8 °F 73% 29.78 in 10.0 mi South 15.0 mph 27.6 mph 0.00 in Rain Light Rain
4:53 AM 71.1 °F 60.1 °F 68% 29.81 in 10.0 mi South 13.8 mph 20.7 mph 0.00 in   Scattered Clouds
5:53 AM 70.0 °F 61.0 °F 73% 29.86 in 10.0 mi South 10.4 mph - N/A   Mostly Cloudy
6:53 AM 68.0 °F 61.0 °F 78% 29.88 in 10.0 mi South 5.8 mph - N/A   Mostly Cloudy
7:53 AM 68.0 °F 62.1 °F 81% 29.89 in 10.0 mi South 4.6 mph - N/A   Overcast
8:53 AM 68.0 °F 63.0 °F 84% 29.90 in 10.0 mi South 8.1 mph - N/A   Partly Cloudy
9:53 AM 68.0 °F 64.0 °F 87% 29.94 in 3.0 mi WSW 4.6 mph - 0.05 in Rain Rain
10:53 AM 68.0 °F 64.9 °F 90% 29.94 in 9.0 mi SSW 6.9 mph - 0.02 in Rain Light Rain
11:53 AM 70.0 °F 64.9 °F 84% 29.92 in 10.0 mi WSW 6.9 mph - 0.00 in   Overcast
12:53 PM 72.0 °F 66.0 °F 81% 29.89 in 10.0 mi SW 10.4 mph - N/A   Mostly Cloudy
1:45 PM 73.4 °F 64.4 °F 73% 29.87 in 10.0 mi SSW 8.1 mph - N/A   Mostly Cloudy
1:53 PM 73.9 °F 64.9 °F 73% 29.87 in 10.0 mi SW 12.7 mph - N/A   Scattered Clouds
2:14 PM 73.4 °F 64.4 °F 73% 29.87 in 10.0 mi SW 10.4 mph - N/A   Mostly Cloudy
2:53 PM 73.9 °F 64.9 °F 73% 29.85 in 10.0 mi SSW 9.2 mph - N/A   Mostly Cloudy
3:13 PM 75.2 °F 64.4 °F 69% 29.84 in 10.0 mi SSW 15.0 mph 24.2 mph N/A   Mostly Cloudy
3:53 PM 75.0 °F 64.9 °F 71% 29.82 in 10.0 mi SW 12.7 mph 19.6 mph N/A   Mostly Cloudy
4:53 PM 75.9 °F 64.9 °F 69% 29.81 in 10.0 mi SW 12.7 mph - N/A   Scattered Clouds
5:00 PM 77.0 °F 66.2 °F 69% 29.80 in 10.0 mi SW 13.8 mph 20.7 mph N/A   Mostly Cloudy
5:21 PM 77.0 °F 64.4 °F 65% 29.80 in 10.0 mi SW 15.0 mph 21.9 mph N/A   Scattered Clouds
5:30 PM 78.8 °F 64.4 °F 61% 29.80 in 10.0 mi SW 11.5 mph - N/A   Mostly Cloudy
5:53 PM 75.9 °F 64.9 °F 69% 29.81 in 10.0 mi WSW 11.5 mph - N/A   Mostly Cloudy
6:05 PM 78.8 °F 64.4 °F 61% 29.82 in 10.0 mi NW 11.5 mph 29.9 mph N/A   Mostly Cloudy
6:13 PM 77.0 °F 64.4 °F 65% 29.82 in 10.0 mi WNW 16.1 mph 23.0 mph N/A   Scattered Clouds
6:53 PM 73.9 °F 62.1 °F 66% 29.83 in 10.0 mi WNW 12.7 mph 17.3 mph N/A   Mostly Cloudy
7:53 PM 70.0 °F 62.1 °F 76% 29.85 in 10.0 mi WNW 4.6 mph - N/A   Partly Cloudy
8:53 PM 66.9 °F 63.0 °F 87% 29.88 in 10.0 mi North 4.6 mph - N/A   Partly Cloudy
9:37 PM 66.2 °F 62.6 °F 88% 29.91 in 10.0 mi North 5.8 mph - N/A   Overcast
9:53 PM 66.9 °F 62.1 °F 84% 29.91 in 10.0 mi North 8.1 mph - N/A   Overcast
10:11 PM 66.2 °F 60.8 °F 83% 29.92 in 10.0 mi North 8.1 mph 19.6 mph N/A   Overcast
10:34 PM 66.2 °F 60.8 °F 83% 29.93 in 10.0 mi NNW 9.2 mph 16.1 mph N/A   Overcast
10:53 PM 66.0 °F 61.0 °F 84% 29.94 in 10.0 mi North 6.9 mph - N/A   Overcast
11:53 PM 64.9 °F 59.0 °F 81% 29.95 in 10.0 mi North 6.9 mph 17.3 mph N/A   Overcast